Hourly Weather Roundup
Issued by NWS Central Illinois

Home | Current Version | Previous Version | Text Only | Print | Product List | Glossary On
Versions: 1 2 3 4 5 6 7 8 9 10 11 12 13 14 15 16 17 18 19 20 21 22 23 24 25 26 27 28 29 30 31 32 33 34 35 36 37 38 39 40 41 42 43 44 45 46 47 48 49 50
000
NZUS43 KILX 231710
HWRILX

AREA WEATHER ROUNDUP
NATIONAL WEATHER SERVICE, LINCOLN IL
1200 PM CDT THU OCT 23 2014


CITY           SKY/WX    TMP DP  RH WIND       PRES   REMARKS
BLOOMINGTON    CLOUDY    56  44  64 SW13      30.20F
CHAMPAIGN      CLOUDY    57  43  59 SW8       30.21F
DECATUR        CLOUDY    56  44  64 S10       30.21F
FLORA          MOSUNNY   57  43  60 S8        30.23F
GALESBURG      CLOUDY    54  43  66 S12G20    30.14F
JACKSONVILLE   CLOUDY    59  45  59 S8        30.18F
LACON          PTSUNNY   55  41  60 S7        30.16F
LAWRENCEVILLE  MOSUNNY   56  42  59 S8        30.24F
LITCHFIELD     CLOUDY    56  42  59 S9        30.21R
$$


CITY           SKY/WX    TMP DP  RH WIND       PRES   REMARKS
LINCOLN        CLOUDY    55  44  66 S7        30.19F
MACOMB         CLOUDY    55  44  68 S14       30.16F
MATTOON        CLOUDY    55  44  66 S10       30.21F
MT CARMEL AP   MOSUNNY   59  43  55 CALM      30.23F
OLNEY-NOBLE AP PTSUNNY   57  43  58 S6        30.23F
PARIS          PTSUNNY   56  44  63 S7        30.23F
PEORIA         PTSUNNY   54  43  66 S13       30.19S
PONTIAC        PTSUNNY   57  43  59 SW12      30.20F
RANTOUL        CLOUDY    59  43  56 S12       30.21F
ROBINSON       MOSUNNY   60  44  56 S3        30.24F
SPRINGFIELD    CLOUDY    56  44  64 S9        30.20F
TAYLORVILLE    CLOUDY    55  43  62 S9        30.21S
$$

...REGIONAL REPORTS...


CITY           SKY/WX    TMP DP  RH WIND       PRES   REMARKS
CHICAGO O`HARE PTSUNNY   55  41  59 SW13G20   30.18F
KANKAKEE       PTSUNNY   58  45  60 SW12      30.21F
MOLINE         CLOUDY    58  44  60 S7        30.11S
MOUNT VERNON   MOSUNNY   57  45  62 SW6       30.24F
PITTSFIELD     CLOUDY    60  45  57 S12       30.16F
QUINCY         CLOUDY    56  44  64 S8        30.14F
ROCKFORD       CLOUDY    59  42  53 SW18      30.16F
$$


CITY           SKY/WX    TMP DP  RH WIND       PRES   REMARKS
BURLINGTON     CLOUDY    56  45  66 S15G23    30.12S
CEDAR RAPIDS   CLOUDY    51  47  86 S10       30.07S
DES MOINES     CLOUDY    63  59  87 W6        30.05S
KIRKSVILLE     PTSUNNY   62  53  72 SW9       30.12F
OTTUMWA        CLOUDY    64  52  64 S9        30.07F
ST LOUIS       CLOUDY    60  43  53 S5        30.20F
$$


CITY           SKY/WX    TMP DP  RH WIND       PRES   REMARKS
TERRE HAUTE    MOSUNNY   54  43  66 SW7       30.23F
EVANSVILLE     SUNNY     57  42  57 VRB3      30.24F
INDIANAPOLIS   MOSUNNY   54  41  61 CALM      30.22F
LAFAYETTE      MOSUNNY   55  41  59 SW8       30.23S
MADISON        CLOUDY    52  40  63 S10       30.11F
MILWAUKEE      PTSUNNY   56  40  55 SW10      30.15F
$$





USA.gov is the U.S. government's official web portal to all federal, state and local government web resources and services.